Hourly Data Report for October 01, 2017

All times are specified in Local Standard Time (LST). Add 1 hour to adjust for Daylight Saving Time where and when it is observed.

HART ISLAND (AUT)
NOVA SCOTIA

45°21'00.000" N
60°59'00.000" W
8.20 m
8202318
71419
WRN

Download Data

Hourly Data (October 2017)
Hourly Data Report for October 1, 2017
Temp Definition
°C
Dew Point Temp Definition
°C
Rel Hum Definition
%
Wind Dir Definition
10's deg

Wind Spd Definition
km/h
Visibility Definition
km
Stn Press Definition
kPa
Hmdx Definition


Wind Chill Definition


Weather Definition


TIME
00:00 9.9 3.8 66 34 9   102.27     LegendNANA
01:00 7.8 5.6 86 24 13   102.27     LegendNANA
02:00 8.0 5.2 82 25 15   102.24     LegendNANA
03:00 7.2 4.9 85 25 16   102.23     LegendNANA
04:00 7.7 5.0 83 25 17   102.22     LegendNANA
05:00 7.2 5.0 86 25 15   102.21     LegendNANA
06:00 6.9 4.0 82 25 16   102.20     LegendNANA
07:00 7.9 4.4 78 25 16   102.19     LegendNANA
08:00 9.9 5.4 74 26 17   102.25     LegendNANA
09:00 11.3 5.6 68 24 19   102.21     LegendNANA
10:00 12.6 5.0 60 23 22   102.16     LegendNANA
11:00 13.0 4.0 54 23 23   102.07     LegendNANA
12:00 13.7 5.1 56 22 27   101.99     LegendNANA
13:00 13.9 5.8 58 22 28   101.90     LegendNANA
14:00 14.3 6.1 58 23 28   101.82     LegendNANA
15:00 14.2 7.0 62 22 35   101.73     LegendNANA
16:00 14.3 7.7 65 22 30   101.70     LegendNANA
17:00 14.0 8.0 67 22 24   101.68     LegendNANA
18:00 12.7 8.6 76 23 19   101.69     LegendNANA
19:00 12.0 8.1 77 24 19   101.73     LegendNANA
20:00 11.4 7.8 79 25 16   101.75     LegendNANA
21:00 12.2 9.1 81 27 18   101.76     LegendNANA
22:00 13.0 7.0 67 29 30   101.75     LegendNANA
23:00 11.3 6.7 73 25 10   101.76     LegendNANA

Notes on Data Quality.

Legend

  • E = Estimated
  • M = Missing
  • NA = Not Available
  • ‡ = Partner data that is not subject to review by the National Climate Archives
Date modified: